Regional Weather Roundup
Issued by NWS

Home | Current Version | Previous Version | Graphics & Text | Print | Product List | Glossary On
Versions: 1 2 3 4 5 6 7 8 9 10 11 12 13 14 15 16 17 18 19 20 21 22 23 24 25 26 27 28 29 30 31 32 33 34 35 36 37 38 39 40 41 42 43 44 45 46 47 48 49 50
000
ASUS43 KOAX 261102
RWRNE

WEATHER ROUNDUP FOR NEBRASKA
NATIONAL WEATHER SERVICE OMAHA NE
600 AM CDT TUE JUL 26 2016

NOTES: SATELLITE DATA IS BEING USED TO AUGMENT CLOUD COVER ABOVE
       12000 FEET.
       "FAIR" INDICATES FEW OR NO CLOUDS BELOW 12,000 FEET WITH NO
       SIGNIFICANT WEATHER AND/OR OBSTRUCTIONS TO VISIBILITY.

  * THESE STATIONS DO NOT REPORT WEATHER SUCH AS RAIN...SNOW OR FOG.

NEZ001>004-019>022-054>056-261200-
NEBRASKA PANHANDLE

CITY           SKY/WX    TMP DP  RH WIND       PRES   REMARKS
SCOTTSBLUFF    CLEAR     64  61  90 E8        30.05F
ALLIANCE       CLEAR     63  62  97 S12       30.06S
CHADRON        CLEAR     71  61  70 S8        30.00S
KIMBALL        CLEAR     60  60 100 S7        30.12S
SIDNEY         CLEAR     61  60  97 SE5       30.12R
$$

NEZ057>060-069>072-079>082-261200-
SOUTHWEST NEBRASKA

CITY           SKY/WX    TMP DP  RH WIND       PRES   REMARKS
NORTH PLATTE   CLEAR     63  62  97 SE6       30.11S
IMPERIAL       CLEAR     65  63  93 SE7       30.11S
LEXINGTON      CLEAR     65  63  92 SE5       30.11S
MCCOOK         CLEAR     66  63  90 SE5       30.10S
OGALLALA       CLEAR     67  64  89 SE3       30.10S
$$

NEZ005>010-023>029-035>040-094-261200-
NORTH CENTRAL NEBRASKA

CITY           SKY/WX    TMP DP  RH WIND       PRES   REMARKS
VALENTINE      CLEAR     68  62  81 S13       30.05S
AINSWORTH      CLEAR     66  61  85 S10       30.07S
BROKEN BOW     CLEAR     63  61  93 S3        30.11R
O`NEILL        CLEAR     65  61  88 S5        30.08S
ORD            CLEAR     62  59  90 CALM      30.08F
THEDFORD       CLEAR     67  65  91 S10       30.10S
$$

NEZ041-046>049-061>064-073>077-083>087-261200-
SOUTH CENTRAL NEBRASKA

CITY           SKY/WX    TMP DP  RH WIND       PRES   REMARKS
GRAND ISLAND   CLEAR     63  61  93 S3        30.10S
AURORA         CLEAR     60  59  98 CALM      30.10S
HASTINGS       CLEAR     65  60  84 S3        30.10F
HEBRON         CLEAR     58  57  96 CALM      30.09S
HOLDREGE       CLEAR     62  60  93 SE3       30.10S
KEARNEY *      CLEAR     61  57  88 CALM      30.11S
$$

NEZ011>018-030>034-042>045-261200-
NORTHEAST NEBRASKA

CITY           SKY/WX    TMP DP  RH WIND       PRES   REMARKS
NORFOLK        CLEAR     59  58  96 CALM      30.09S FOG
ALBION         CLEAR     60  57  92 CALM      30.09S
BLAIR          CLEAR     68  65  92 E3        30.09S
FREMONT        CLEAR     64  62  96 CALM      30.10R
TEKAMAH        FOG       60  59  96 CALM      30.08S VSB 1/4
WAYNE          CLEAR     59  58  96 CALM      30.09S
$$

NEZ050>053-065>068-078-088>093-261200-
SOUTHEAST NEBRASKA

CITY           SKY/WX    TMP DP  RH WIND       PRES   REMARKS
LINCOLN        CLEAR     63  61  93 N3        30.09S
OMAHA EPPLEY   CLEAR     64  62  93 CALM      30.09R
BEATRICE       CLEAR     63  62  96 CALM      30.09S
FALLS CITY     CLEAR     64  63  96 N5        30.07R
NEBRASKA CITY  CLEAR     66  66 100 CALM      30.09S
PLATTSMOUTH    CLEAR     67  66  98 CALM      30.10R
$$

NEZ044-045-051>053-067-261200-
OMAHA AREA

CITY           SKY/WX    TMP DP  RH WIND       PRES   REMARKS
OMAHA EPPLEY   CLEAR     64  62  93 CALM      30.09R
BLAIR          CLEAR     68  65  92 E3        30.09S
FREMONT        CLEAR     64  62  96 CALM      30.10R
MILLARD        CLEAR     66  65  97 CALM      30.09S
OFFUTT AFB     CLEAR     62  62 100 VRB2      30.08S
PLATTSMOUTH    CLEAR     67  66  98 CALM      30.10R
WAHOO          FAIR      62  60  94 CALM      30.09S
$$




USA.gov is the U.S. government's official web portal to all federal, state and local government web resources and services.